Winfield, KS

7:42 AM CST on December 14, 2019 (GMT -0600)
Strother

Weather History for KWLD - October, 2019

Change the Weather History Date:

Thursday, October 17, 2019

  Actual Average Record
Temperature  
Mean Temperature 58 °F -  
Max Temperature 73 °F 68 °F 90 °F (2005)
Min Temperature 42 °F 46 °F 30 °F (2002)
Degree Days  
Heating Degree Days 8    
Growing Degree Days 8 (Base 50)    
Moisture  
Dew Point 42 °F    
Average Humidity 61    
Maximum Humidity 89    
Minimum Humidity 34    
Precipitation  
Precipitation 0.00 in - - ()
Sea Level Pressure  
Sea Level Pressure 29.95 in    
Wind  
Wind Speed 8 mph ()    
Max Wind Speed 16 mph    
Max Gust Speed 26 mph    
Visibility 10.0 miles    
Events      
Averages and records for this station are not official NWS values.
T = Trace of Precipitation, MM = Missing Value Source: Averaged Metar Reports

Daily Weather History Graph

Daily Weather History Graph

Search for Another Location

Airport or City:

Astronomy

Oct. 17, 2019 Rise Set
Actual Time 7:37 AM CDT 6:48 PM CDT
Civil Twilight 7:11 AM CDT 7:15 PM CDT
Nautical Twilight 6:41 AM CDT 7:45 PM CDT
Astronomical Twilight 6:10 AM CDT 8:15 PM CDT
Moon 9:25 PM CDT (10/17) 11:06 AM CDT (10/17)
Length of Visible Light 12h 03m
Length of Day
11h 11m
Waning Gibbous, 86% of the Moon is Illuminated
Oct 17
Waning Gibbous
Oct 21
Last Quarter
Oct 27
New
Nov 4
First Quarter
Nov 12
Full

Hourly Weather History & Observations

Time (CDT) Temp. Windchill Dew Point Humidity Pressure Visibility Wind Dir Wind Speed Gust Speed Precip Events Conditions
12:54 AM 48.0 °F - 39.9 °F 74% 30.06 in 10.0 mi ESE 5.8 mph - N/A   Clear
1:54 AM 46.0 °F 44.8 °F 39.0 °F 76% 30.06 in 10.0 mi SE 3.5 mph - N/A   Clear
2:54 AM 44.1 °F 39.5 °F 39.9 °F 85% 30.06 in 10.0 mi South 8.1 mph - N/A   Clear
3:54 AM 45.0 °F 42.6 °F 39.9 °F 82% 30.06 in 10.0 mi SSE 4.6 mph - N/A   Clear
4:54 AM 44.1 °F 39.5 °F 39.9 °F 85% 30.04 in 10.0 mi South 8.1 mph - N/A   Clear
5:54 AM 42.1 °F 38.4 °F 39.0 °F 89% 30.03 in 10.0 mi SSE 5.8 mph - N/A   Clear
6:54 AM 42.1 °F 38.4 °F 39.0 °F 89% 30.03 in 10.0 mi SSE 5.8 mph - N/A   Clear
7:54 AM 43.0 °F 38.8 °F 39.0 °F 86% 30.03 in 10.0 mi SSE 6.9 mph - N/A   Clear
8:54 AM 48.9 °F - 42.1 °F 77% 30.03 in 10.0 mi SSE 10.4 mph - N/A   Clear
9:54 AM 55.0 °F - 42.1 °F 62% 30.02 in 10.0 mi South 13.8 mph 21.9 mph N/A   Clear
10:54 AM 61.0 °F - 42.1 °F 50% 30.00 in 10.0 mi South 10.4 mph - N/A   Clear
11:54 AM 66.0 °F - 41.0 °F 40% 29.97 in 10.0 mi South 12.7 mph - N/A   Clear
12:54 PM 68.0 °F - 42.1 °F 39% 29.95 in 10.0 mi South 16.1 mph 25.3 mph N/A   Clear
1:54 PM 71.1 °F - 44.1 °F 38% 29.91 in 10.0 mi South 16.1 mph 25.3 mph N/A   Clear
2:54 PM 72.0 °F - 43.0 °F 35% 29.88 in 10.0 mi South 12.7 mph 24.2 mph N/A   Clear
3:54 PM 73.0 °F - 43.0 °F 34% 29.86 in 10.0 mi South 16.1 mph 26.5 mph N/A   Clear
4:54 PM 72.0 °F - 43.0 °F 35% 29.85 in 10.0 mi South 15.0 mph - N/A   Clear
5:54 PM 70.0 °F - 43.0 °F 38% 29.84 in 10.0 mi SSE 11.5 mph - N/A   Clear
6:54 PM 64.9 °F - 44.1 °F 47% 29.83 in 10.0 mi SE 8.1 mph - N/A   Clear
7:54 PM 61.0 °F - 44.1 °F 54% 29.85 in 10.0 mi SSE 9.2 mph - N/A   Clear
8:54 PM 61.0 °F - 45.0 °F 56% 29.84 in 10.0 mi SSE 12.7 mph - N/A   Clear
9:54 PM 59.0 °F - 45.0 °F 60% 29.84 in 10.0 mi SSE 9.2 mph - N/A   Clear
10:54 PM 59.0 °F - 45.0 °F 60% 29.84 in 10.0 mi South 13.8 mph - N/A   Clear
11:54 PM 57.0 °F - 45.0 °F 64% 29.83 in 10.0 mi South 12.7 mph - N/A   Clear